Location: Bothwell
(42.3833°S, 147.0000°E)
Time: 06:22:08
(UTC+10:00)

BEESAT - Visible Passes

Search period start: 25 September 2022 00:00
Search period end: 05 October 2022 01:00
Orbit: 698 x 708 km, 98.5° (Epoch: 24 September)

Date Brightness Start Highest point End Pass type
(mag) Time Alt. Az. Time Alt. Az. Time Alt. Az.
25 Sep ? 18:48:26 10° ENE 18:52:04 22° ESE 18:55:44 10° SSE visible
25 Sep ? 20:26:41 22° NNW 20:29:28 44° W 20:34:07 10° SSW visible
26 Sep ? 19:31:07 17° NE 19:34:38 53° ESE 19:39:22 10° S visible
26 Sep ? 21:10:00 12° NW 21:12:39 17° W 21:15:50 10° SW visible
27 Sep ? 18:37:10 10° ENE 18:40:15 17° ESE 18:43:21 10° SSE visible
27 Sep ? 20:14:26 22° N 20:17:28 59° W 20:22:17 10° SSW visible
28 Sep ? 19:18:52 13° NE 19:22:45 40° ESE 19:27:16 10° S visible
28 Sep ? 20:57:45 14° NW 21:00:34 23° W 21:04:23 10° SW visible
29 Sep ? 20:02:11 20° N 20:05:29 79° WNW 20:10:23 10° SSW visible
30 Sep ? 19:06:39 10° NE 19:10:52 31° ESE 19:15:07 10° S visible
30 Sep ? 20:45:30 16° NNW 20:48:31 30° W 20:52:46 10° SW visible
01 Oct ? 19:49:55 18° NNE 19:53:32 80° ESE 19:58:25 10° S visible
01 Oct ? 21:30:23 10° WNW 21:31:49 11° W 21:33:16 10° WSW visible
02 Oct ? 19:55:08 10° ENE 19:59:00 24° ESE 20:02:54 10° SSE visible
02 Oct ? 21:33:14 17° NNW 21:36:29 39° W 21:41:02 10° SSW visible
03 Oct ? 20:37:40 15° NNE 20:41:36 60° ESE 20:46:23 10° S visible
03 Oct ? 22:16:55 10° NW 22:19:42 15° W 22:22:30 10° SW visible
04 Oct ? 19:43:47 10° ENE 19:47:10 19° ESE 19:50:33 10° SSE visible
04 Oct ? 21:20:59 17° N 21:24:27 52° W 21:29:13 10° SSW visible
